Terminal Aerodrome Forecast
Issued by NWS Twin Cities, MN

Home | Current Version | Previous Version | Graphics & Text | Print | Product List | Glossary On
Versions: 1 2 3 4 5 6 7 8 9 10 11 12 13 14 15 16
803
FTUS43 KMPX 270835 AAA
TAFEAU
TAF AMD
KEAU 270835Z 2709/2806 VRB03KT P6SM SKC
      TEMPO 2709/2713 3/4SM BR
     FM271500 27007KT P6SM SCT120 BKN250
     FM272000 26008KT P6SM BKN100
     FM280200 22003KT P6SM BKN120=

USA.gov is the U.S. government's official web portal to all federal, state and local government web resources and services.